Regional Weather Roundup
Issued by NWS Newport/Morehead, NC

Home | Current Version | Previous Version | Text Only | Print | Product List | Glossary On
Versions: 1 2 3 4 5 6 7 8 9 10 11 12 13 14 15 16 17 18 19 20 21 22 23 24 25 26 27 28 29 30 31 32 33 34 35 36 37 38 39 40 41 42 43 44 45 46 47 48 49 50
000
ASUS42 KMHX 210222
RWRMHX
WEATHER ROUNDUP FOR EASTERN NORTH CAROLINA
NATIONAL WEATHER SERVICE NEWPORT/MOREHEAD CITY NC
1000 PM EDT WED AUG 20 2014

NOTE: "FAIR" INDICATES FEW OR NO CLOUDS BELOW 12,000 FEET
WITH NO SIGNIFICANT WEATHER AND/OR OBSTRUCTIONS TO VISIBILITY

NCZ015>017-031-032-045>047-102-103-210300-
NORTH COAST

CITY           SKY/WX    TMP DP  RH WIND       PRES   REMARKS
EDENTON        CLEAR     77  74  88 SE5       30.02R
ELIZABETH CITY CLEAR     75  71  87 E5        30.01R
KITTY HAWK     CLEAR     75  71  85 CALM      30.01R
MANTEO         CLEAR     73  72  94 CALM      30.02S

$$

NCZ045>047-081-094-103-104-210300-
CENTRAL COAST

CITY           SKY/WX    TMP DP  RH WIND       PRES   REMARKS
FRISCO         PTCLDY    74  72  93 NE3       30.02R
SWANQUARTER      N/A     77 N/A N/A SE3       29.97S

$$

NCZ095-097-098-100-101-210300-
SOUTHERN COAST

CITY           SKY/WX    TMP DP  RH WIND       PRES   REMARKS
BEAUFORT       CLEAR     80  75  84 S3        30.00R
CEDAR ISLAND     N/A     79 N/A N/A SE3       30.06S
JACKSONVILLE   CLEAR     77  75  93 S3        30.00R
NEWPORT        NOT AVBL
PINEY ISLAND   NOT AVBL
WILMINGTON     CLEAR     77  75  93 CALM      30.01R


$$

NCZ011>013-027>030-043-044-078>080-089-090>093-098-210300-
COASTAL PLAIN

CITY           SKY/WX    TMP DP  RH WIND       PRES   REMARKS
AHOSKIE        PTCLDY    74  72  92 CALM      30.03R
CLINTON        CLEAR     76  75  99 CALM      30.03R
ELIZABETHTOWN  CLEAR     79  75  87 CALM      30.02R
GOLDSBORO      CLEAR     79  78  98 CALM      30.00R
GREENVILLE     PTCLDY    77  75  94 CALM      30.03R
HAVELOCK       NOT AVBL
KENANSVILLE    PTCLDY    75  73  93 CALM      30.03R
KINSTON        CLEAR     77  75  93 CALM      30.03R
NEW BERN       CLEAR     79  74  84 CALM      30.02R
RICHLANDS      CLEAR     75  72  88 CALM      30.03R
ROANOKE RAPIDS NOT AVBL
ROCKY MOUNT    CLEAR     75  73  93 CALM      30.02R
WASHINGTON     CLEAR     78  74  88 CALM      30.03R
WHITEVILLE     PTCLDY    76  73  93 CALM      30.02R

$$

AMZ130-135-150-152-154-156-158-170-250-252-270-ANZ085-086-088-633-658-670-210300-
MARINE OBSERVATIONS

STATION/POSITION TIME  TEMP    WIND        PRES    WAVE   SWELL
                       AIR SEA DIR/SP/G            HT/PER HT/PER
                 (UTC) (F)     (DEG/KT/KT) (MB)    (FT/S) (FT/S)
CHESAPEAKE LIGHT 0200   76     120/ 10/ 11 1016.6
BUOY 44014       0200   77 78   50/  6/  8 1015.9    3/ 7   2/ 7
DUCK             0200   77 79  110/  6/  6 1015.8
2E DUCK          0100                        N/A     2/ 6
OREGON INLET     0200   77 82   80/  4/  5 1016.4
BUOY 44095       0100      80                N/A     3/ 5
20E OREGON INLET NOT AVBL
HATTERAS CG      0200   78 82   40/  2/  3 1017.3
DIAMOND BUOY     0200   78     310/  2/  4 1016.2    2/ 6   2/ 6
CAPE LOOKOUT     0200   81     220/  4/  4 1016.1
BEAUFORT LAB     0200   81 82  200/  4/  5 1015.7
30 SE NEW RIVER  0200   82 83  220/  6/  8 1015.7    3/ 6   3/ 6
5 SE WRIGHTSVILL 0100   79 83  210/  6/  8   N/A
BUOY 41002       0146   81 81  240/ 12/ 14 1017.9    4/ 7   3/ 7
BUOY 41004       0200   84 84  230/ 10/ 14 1015.8    3/ 4   2/10

$$


USA.gov is the U.S. government's official web portal to all federal, state and local government web resources and services.